FW4606 Weather Reports


time (UTC)temp
C
wind
direction
speed
KPH
gust
KPH
rain 1hr
cm
rain 24hr
cm
rain mn
cm
humidity
%
barometer
mb
20260905030853 20 352 0.0 3.2 0.00 0.00 0.00 89 1015.6
20260905030347 20 341 0.0 3.2 0.00 0.00 0.00 89 1015.6
20260905030113 20 24 0.0 1.6 0.00 0.00 0.00 89 1015.6
20260905025334 20 16 0.0 6.4 0.00 0.00 0.00 88 1015.5
20260905025059 20 0 0.0 6.4 0.00 0.00 0.00 88 1015.5
20260905024555 20 294 0.0 3.2 0.00 0.00 0.00 88 1015.5
20260905024050 21 11 0.0 3.2 0.00 0.00 0.00 87 1015.5
20260905023310 21 308 0.0 1.6 0.00 0.00 0.00 87 1015.4
20260905023038 21 26 0.0 1.6 0.00 0.00 0.00 87 1015.3
20260905022801 21 359 0.0 4.8 0.00 0.00 0.00 86 1015.2
20260905022033 21 13 0.0 4.8 0.00 0.00 0.00 86 1015.2
20260905021247 21 359 0.0 3.2 0.00 0.00 0.00 85 1015.1
20260905020741 21 354 0.0 3.2 0.00 0.00 0.00 85 1015.1
20260905020235 21 9 0.0 3.2 0.00 0.00 0.00 84 1015.1
20260905015729 22 25 0.0 3.2 0.00 0.00 0.00 84 1015.1
20260905015223 22 9 0.0 3.2 0.00 0.00 0.00 83 1015.0
20260905014717 22 354 0.0 3.2 0.00 0.00 0.00 83 1014.9
20260905014211 22 25 0.0 3.2 0.00 0.00 0.00 83 1014.9
20260905013704 22 345 0.0 3.2 0.00 0.00 0.00 82 1014.8
20260905013159 22 340 0.0 3.2 0.00 0.00 0.00 82 1014.7
20260905012653 23 5 0.0 4.8 0.00 0.00 0.00 82 1014.8
20260905012147 23 1 0.0 4.8 0.00 0.00 0.00 81 1014.6
20260905011643 23 356 0.0 1.6 0.00 0.00 0.00 81 1014.6
20260905011638 23 356 0.0 4.8 0.00 0.00 0.00 80 1014.4
20260905010629 23 356 0.0 4.8 0.00 0.00 0.00 79 1014.4
20260905010123 24 5 0.0 4.8 0.00 0.00 0.00 78 1014.4
20260905005616 24 11 0.0 4.8 0.00 0.00 0.00 78 1014.3
20260905005111 24 349 0.0 3.2 0.00 0.00 0.00 77 1014.2
20260905004606 25 22 0.0 3.2 0.00 0.00 0.00 76 1014.2
20260905004330 25 4 0.0 6.4 0.00 0.00 0.00 76 1014.2
20260905003552 25 9 0.0 6.4 0.00 0.00 0.00 75 1014.3
20260905003047 25 7 0.0 4.8 0.00 0.00 0.00 75 1014.2
20260905002541 26 1 0.0 4.8 0.00 0.00 0.00 74 1014.2
20260905002035 26 211 0.0 3.2 0.00 0.00 0.00 74 1014.1
20260905001529 26 18 0.0 1.6 0.00 0.00 0.00 73 1013.9
20260905001024 26 4 0.0 3.2 0.00 0.00 0.00 72 1013.8
20260905001019 27 347 0.0 3.2 0.00 0.00 0.00 72 1013.7
20260905000014 27 350 0.0 0.0 0.00 0.00 0.00 72 1013.7
20260904235504 27 350 0.0 0.0 0.00 0.00 0.00 71 1013.6
20260904234959 27 350 0.0 0.0 0.00 0.00 0.00 71 1013.6
20260904234452 27 356 0.0 3.2 0.00 0.00 0.00 70 1013.6
20260904234219 28 12 0.0 3.2 0.00 0.00 0.00 70 1013.7
20260904233441 28 353 0.0 3.2 0.00 0.00 0.00 68 1013.6
20260904232935 28 11 0.0 3.2 0.00 0.00 0.00 68 1013.6
20260904232429 28 352 0.0 3.2 0.00 0.00 0.00 68 1013.6
20260904231923 28 5 0.0 4.8 0.00 0.00 0.00 66 1013.6
20260904231417 29 19 0.0 4.8 0.00 0.00 0.00 66 1013.5
20260904230917 29 334 1.6 4.8 0.00 0.00 0.00 66 1013.4
20260904230417 29 32 1.6 4.8 0.00 0.00 0.00 66 1013.4
20260904225917 29 356 0.0 3.2 0.00 0.00 0.00 65 1013.5
20260904225649 29 343 1.6 4.8 0.00 0.00 0.00 64 1013.5
20260904224917 29 12 1.6 6.4 0.00 0.00 0.00 65 1013.4
20260904224414 30 358 1.6 6.4 0.00 0.00 0.00 64 1013.4
20260904223915 30 352 1.6 6.4 0.00 0.00 0.00 64 1013.2
20260904223415 30 356 1.6 4.8 0.00 0.00 0.00 63 1013.2
20260904222913 30 353 0.0 4.8 0.00 0.00 0.00 62 1013.1
20260904222411 30 198 0.0 4.8 0.00 0.00 0.00 63 1013.0
20260904221909 30 51 0.0 4.8 0.00 0.00 0.00 62 1013.0
20260904221407 30 19 0.0 4.8 0.00 0.00 0.00 64 1013.0
20260904220908 30 26 0.0 6.4 0.00 0.00 0.00 64 1012.9
20260904220407 30 333 1.6 6.4 0.00 0.00 0.00 64 1012.8
20260904215905 30 1 1.6 4.8 0.00 0.00 0.00 63 1012.7
20260904215407 30 339 0.0 4.8 0.00 0.00 0.00 64 1012.8
20260904214906 30 354 0.0 4.8 0.00 0.00 0.00 63 1012.7
20260904214407 31 105 0.0 3.2 0.00 0.00 0.00 65 1012.7
20260904213901 30 319 0.0 3.2 0.00 0.00 0.00 64 1012.7
20260904213355 30 358 0.0 1.6 0.00 0.00 0.00 65 1012.8
20260904212854 30 350 0.0 1.6 0.00 0.00 0.00 63 1012.8
20260904212355 30 0 0.0 3.2 0.00 0.00 0.00 66 1012.7
20260904212122 30 4 0.0 4.8 0.00 0.00 0.00 65 1012.7
20260904211352 30 1 0.0 4.8 0.00 0.00 0.00 68 1012.7
20260904210850 30 339 0.0 3.2 0.00 0.00 0.00 66 1012.8
20260904210347 30 84 0.0 4.8 0.00 0.00 0.00 66 1012.9
20260904205845 30 350 0.0 4.8 0.00 0.00 0.00 65 1012.9
20260904205348 30 98 0.0 4.8 0.00 0.00 0.00 67 1012.9
20260904204846 29 356 0.0 4.8 0.00 0.00 0.00 67 1012.9
20260904204345 30 331 0.0 6.4 0.00 0.00 0.00 66 1012.9
20260904203846 29 98 1.6 6.4 0.00 0.00 0.00 69 1012.9
20260904203346 29 335 1.6 4.8 0.00 0.00 0.00 66 1012.9
20260904202843 29 15 1.6 4.8 0.00 0.00 0.00 66 1012.9
20260904202345 29 328 0.0 4.8 0.00 0.00 0.00 68 1013.0
20260904201841 29 1 0.0 4.8 0.00 0.00 0.00 68 1013.0
20260904201341 29 356 0.0 4.8 0.00 0.00 0.00 67 1013.0
20260904200843 28 350 0.0 3.2 0.00 0.00 0.00 69 1012.9
20260904200615 28 354 0.0 4.8 0.00 0.00 0.00 69 1012.9
20260904195842 28 0 1.6 4.8 0.00 0.00 0.00 69 1013.0
20260904195342 28 32 0.0 4.8 0.00 0.00 0.00 71 1012.9
20260904194841 28 345 0.0 3.2 0.00 0.00 0.00 71 1013.0
20260904194339 28 12 1.6 8.0 0.00 0.00 0.00 73 1013.0
20260904193837 27 101 1.6 8.0 0.00 0.00 0.00 75 1013.0
20260904193339 27 356 1.6 6.4 0.00 0.00 0.00 74 1013.0
20260904192837 27 356 1.6 6.4 0.00 0.00 0.00 75 1013.0
20260904192333 27 350 1.6 6.4 0.00 0.00 0.00 75 1013.1
20260904191834 27 358 0.0 4.8 0.00 0.00 0.00 78 1013.1
20260904191605 27 354 0.0 6.4 0.00 0.00 0.00 78 1013.1
20260904190832 27 27 0.0 6.4 0.00 0.00 0.00 79 1013.1
20260904190332 27 19 0.0 4.8 0.00 0.00 0.00 80 1013.2
20260904185834 26 8 0.0 6.4 0.00 0.00 0.00 80 1013.1
20260904185329 26 7 0.0 6.4 0.00 0.00 0.00 80 1013.2
20260904184830 26 12 0.0 4.8 0.00 0.00 0.00 82 1013.2
20260904184331 26 351 0.0 4.8 0.00 0.00 0.00 82 1013.2
20260904183831 26 351 0.0 4.8 0.00 0.00 0.00 81 1013.4
20260904183324 26 356 0.0 3.2 0.00 0.00 0.00 81 1013.4
20260904182824 25 5 0.0 4.8 0.00 0.00 0.00 83 1013.4
20260904182322 25 12 0.0 4.8 0.00 0.00 0.00 84 1013.4
20260904181821 25 94 0.0 4.8 0.00 0.00 0.00 85 1013.5
20260904181321 25 113 0.0 4.8 0.00 0.00 0.00 85 1013.4
20260904180820 24 16 0.0 3.2 0.00 0.00 0.00 85 1013.4
20260904180321 24 352 0.0 3.2 0.00 0.00 0.00 85 1013.4
20260904175821 24 324 0.0 4.8 0.00 0.00 0.00 86 1013.4
20260904175321 23 6 0.0 4.8 0.00 0.00 0.00 87 1013.4
20260904175053 23 337 0.0 4.8 0.00 0.00 0.00 87 1013.4
20260904174316 23 295 1.6 6.4 0.00 0.00 0.00 87 1013.4
20260904173817 23 9 1.6 6.4 0.00 0.00 0.00 87 1013.5
20260904173315 23 323 0.0 4.8 0.00 0.00 0.00 87 1013.4
20260904172815 23 0 0.0 3.2 0.00 0.00 0.00 87 1013.4
20260904172315 23 12 0.0 3.2 0.00 0.00 0.00 88 1013.5
20260904171815 23 4 0.0 3.2 0.00 0.00 0.00 89 1013.4
20260904171317 23 356 0.0 4.8 0.00 0.00 0.00 89 1013.4
20260904170816 23 43 0.0 4.8 0.00 0.00 0.00 90 1013.2
20260904170317 23 346 0.0 3.2 0.00 0.00 0.00 91 1013.2
20260904165812 23 350 0.0 4.8 0.00 0.00 0.00 91 1013.2
20260904165546 23 6 0.0 4.8 0.00 0.00 0.00 91 1013.1
20260904165048 23 356 0.0 3.2 0.00 0.00 0.00 92 1013.1
20260904164313 23 0 0.0 3.2 0.00 0.00 0.00 92 1013.1
20260904163812 23 7 0.0 3.2 0.00 0.00 0.00 92 1013.0
20260904163312 23 19 0.0 0.0 0.00 0.00 0.00 92 1012.9
20260904162812 23 354 0.0 0.0 0.00 0.00 0.00 92 1012.9
20260904162311 23 356 0.0 0.0 0.00 0.00 0.00 92 1012.8
20260904161813 23 352 0.0 0.0 0.00 0.00 0.00 92 1012.7
20260904161307 23 15 0.0 3.2 0.00 0.00 0.00 92 1012.7
20260904160807 23 12 0.0 3.2 0.00 0.00 0.00 92 1012.6
20260904160307 23 22 0.0 3.2 0.00 0.00 0.00 92 1012.5
20260904155807 23 79 0.0 1.6 0.00 0.00 0.00 93 1012.6
20260904155539 22 56 0.0 3.2 0.00 0.00 0.00 93 1012.6
20260904154808 22 24 0.0 3.2 0.00 0.00 0.00 93 1012.5
20260904154538 22 3 0.0 3.2 0.00 0.00 0.00 93 1012.5
20260904153808 22 4 0.0 3.2 0.00 0.00 0.00 93 1012.4
20260904153308 22 1 0.0 1.6 0.00 0.00 0.00 93 1012.4
20260904152805 22 1 0.0 1.6 0.00 0.00 0.00 93 1012.3
20260904152306 22 1 0.0 3.2 0.00 0.00 0.00 94 1012.2
20260904151803 22 1 0.0 3.2 0.00 0.00 0.00 93 1012.2
20260904151304 22 300 0.0 3.2 0.00 0.00 0.00 94 1012.1
20260904150804 22 301 0.0 3.2 0.00 0.00 0.00 93 1012.1
20260904150304 22 70 0.0 1.6 0.00 0.00 0.00 93 1012.0
20260904150034 22 67 0.0 1.6 0.00 0.00 0.00 93 1012.0
20260904145305 22 1 0.0 1.6 0.00 0.00 0.00 93 1011.9
20260904145036 22 343 0.0 1.6 0.00 0.00 0.00 93 1011.9
20260904144301 22 330 0.0 1.6 0.00 0.00 0.00 93 1011.8
20260904143801 22 330 0.0 1.6 0.00 0.00 0.00 93 1011.8
20260904143300 22 291 0.0 1.6 0.00 0.00 0.00 94 1011.7
20260904142800 22 292 0.0 1.6 0.00 0.00 0.00 93 1011.7
20260904142301 21 293 0.0 0.0 0.00 0.00 0.00 94 1011.5
20260904141759 21 293 0.0 1.6 0.00 0.00 0.00 94 1011.5
20260904141301 21 291 0.0 1.6 0.00 0.00 0.00 94 1011.3
20260904140801 21 335 0.0 1.6 0.00 0.00 0.00 94 1011.2
20260904140301 21 134 0.0 1.6 0.00 0.00 0.00 95 1011.2
20260904135757 21 134 0.0 4.8 0.00 0.00 0.00 95 1011.3
20260904135256 21 132 0.0 4.8 0.00 0.00 0.00 95 1011.2
20260904135026 21 96 0.0 3.2 0.00 0.00 0.00 95 1011.2
20260904134526 21 119 0.0 1.6 0.00 0.00 0.00 96 1011.3
20260904134418 20 95 0.0 1.6 0.00 0.00 0.00 95 1011.3
20260904133253 20 93 0.0 1.6 0.00 0.00 0.00 95 1011.3
20260904132748 20 356 0.0 1.6 0.00 0.00 0.00 95 1011.3
20260904132246 20 357 0.0 1.6 0.00 0.00 0.00 95 1011.3
20260904132019 20 356 0.0 1.6 0.00 0.00 0.00 96 1011.4
20260904131244 20 356 0.0 1.6 0.00 0.00 0.00 95 1011.3
20260904130744 20 39 0.0 0.0 0.00 0.00 0.00 95 1011.3
20260904130243 20 37 0.0 0.0 0.00 0.00 0.00 95 1011.4
20260904125749 20 37 0.0 0.0 0.00 0.00 0.00 95 1011.2
20260904125741 20 37 0.0 0.0 0.00 0.00 0.00 95 1011.3
20260904124737 20 37 0.0 1.6 0.00 0.00 0.00 95 1011.2
20260904124236 20 37 0.0 1.6 0.00 0.00 0.00 95 1011.1
20260904123736 20 44 0.0 0.0 0.00 0.00 0.00 95 1011.1
20260904123459 20 43 0.0 0.0 0.00 0.00 0.00 95 1011.1
20260904122729 20 43 0.0 0.0 0.00 0.00 0.00 95 1011.1
20260904122229 20 43 0.0 0.0 0.00 0.00 0.00 95 1011.0
20260904121727 20 43 0.0 0.0 0.00 0.00 0.00 94 1010.9
20260904121225 20 70 0.0 1.6 0.00 0.00 0.00 94 1010.8
20260904120724 20 70 0.0 1.6 0.00 0.00 0.00 94 1010.7
20260904120221 20 342 0.0 1.6 0.00 0.00 0.00 94 1010.7
20260904115723 20 341 0.0 1.6 0.00 0.00 0.00 94 1010.7
20260904115221 20 340 0.0 1.6 0.00 0.00 0.00 94 1010.7
20260904114953 20 318 0.0 0.0 0.00 0.00 0.00 94 1010.6
20260904114225 20 314 0.0 0.0 0.00 0.00 0.00 94 1010.6
20260904114220 20 318 0.0 0.0 0.00 0.00 0.00 94 1010.6
20260904113218 20 313 0.0 0.0 0.00 0.00 0.00 94 1010.5
20260904112724 20 312 0.0 1.6 0.00 0.00 0.00 94 1010.3
20260904112717 20 313 0.0 1.6 0.00 0.00 0.00 94 1010.4
20260904111715 20 285 0.0 1.6 0.00 0.00 0.00 94 1010.3
20260904111218 20 270 0.0 0.0 0.00 0.00 0.00 94 1010.2
20260904110720 21 18 0.0 1.6 0.00 0.00 0.00 93 1010.3
20260904110716 20 271 0.0 1.6 0.00 0.00 0.00 93 1010.2
20260904105712 21 116 0.0 3.2 0.00 0.00 0.00 93 1010.3
20260904105211 21 122 0.0 3.2 0.00 0.00 0.00 93 1010.3
20260904104712 21 139 0.0 1.6 0.00 0.00 0.00 93 1010.4
20260904104211 21 140 0.0 3.2 0.00 0.00 0.00 94 1010.3
20260904103708 21 6 0.0 3.2 0.00 0.00 0.00 94 1010.4
20260904103436 21 12 0.0 3.2 0.00 0.00 0.00 94 1010.3
20260904102706 21 12 0.0 3.2 0.00 0.00 0.00 94 1010.4
20260904102205 21 349 0.0 3.2 0.00 0.00 0.00 94 1010.3
20260904101707 21 350 0.0 4.8 0.00 0.00 0.00 95 1010.3
20260904101210 21 83 0.0 4.8 0.00 0.00 0.00 95 1010.2
20260904100706 22 350 0.0 3.2 0.00 0.00 0.00 95 1010.3
20260904100438 22 6 0.0 1.6 0.00 0.00 0.00 95 1010.1
20260904095710 22 57 0.0 3.2 0.00 0.00 0.00 95 1010.1
20260904095706 22 6 0.0 3.2 0.00 0.00 0.00 95 1010.2
20260904094707 22 329 0.0 1.6 0.00 0.00 0.00 95 1010.2
20260904094206 22 103 0.0 3.2 0.00 0.00 0.00 95 1010.0
20260904093701 22 281 0.0 3.2 0.00 0.00 0.00 95 1010.2
20260904093433 22 165 0.0 3.2 0.00 0.00 0.00 95 1010.2
20260904092705 22 165 0.0 3.2 0.00 0.00 0.00 95 1010.1
20260904092203 22 340 0.0 3.2 0.00 0.00 0.00 95 1010.3
20260904091700 22 115 0.0 3.2 0.00 0.00 0.00 95 1010.0
20260904091200 22 41 0.0 1.6 0.00 0.00 0.00 95 1010.2
20260904090657 22 39 0.0 1.6 0.00 0.00 0.00 95 1010.2
20260904090157 22 40 0.0 1.6 0.00 0.00 0.00 95 1010.2
20260904085659 22 91 0.0 1.6 0.00 0.00 0.00 95 1010.2
20260904085156 22 342 0.0 1.6 0.00 0.00 0.00 95 1010.2
20260904084656 22 324 1.6 4.8 0.00 0.00 0.00 95 1009.8
20260904084155 22 113 1.6 4.8 0.00 0.00 0.00 95 1010.1
20260904083654 22 359 0.0 3.2 0.00 0.00 0.00 95 1009.7
20260904083152 22 142 0.0 0.0 0.00 0.00 0.00 95 1009.5
20260904082655 22 143 0.0 0.0 0.00 0.00 0.00 95 1009.3
20260904082151 22 143 0.0 0.0 0.00 0.00 0.00 95 1009.2
20260904081653 22 142 0.0 0.0 0.00 0.00 0.00 94 1009.3
20260904081151 22 142 0.0 0.0 0.00 0.00 0.00 94 1009.3
20260904080646 22 142 0.0 0.0 0.00 0.00 0.00 94 1009.3
20260904080139 22 142 0.0 0.0 0.00 0.00 0.00 94 1009.3
20260904075906 22 143 0.0 0.0 0.00 0.00 0.00 94 1009.3
20260904075358 22 143 0.0 0.0 0.00 0.00 0.00 94 1009.3
20260904074622 22 142 0.0 0.0 0.00 0.00 0.00 94 1009.2
20260904074116 22 143 0.0 0.0 0.00 0.00 0.00 94 1009.2
20260904073610 22 142 0.0 0.0 0.00 0.00 0.00 94 1009.2
20260904073104 22 142 0.0 0.0 0.00 0.00 0.00 93 1009.2
20260904072558 22 143 0.0 0.0 0.00 0.00 0.00 93 1009.3
20260904072322 22 142 0.0 0.0 0.00 0.00 0.00 93 1009.3
20260904071817 23 143 0.0 0.0 0.00 0.00 0.00 92 1009.3
20260904071039 23 142 0.0 0.0 0.00 0.00 0.00 92 1009.3
20260904070534 23 143 0.0 0.0 0.00 0.00 0.00 92 1009.3
20260904070028 23 143 0.0 0.0 0.00 0.00 0.00 92 1009.5
20260904065522 23 142 0.0 1.6 0.00 0.00 0.00 92 1009.5
20260904065016 23 142 0.0 1.6 0.00 0.00 0.00 92 1009.5
20260904064510 23 142 0.0 0.0 0.00 0.00 0.00 92 1009.5
20260904064004 23 142 0.0 0.0 0.00 0.00 0.00 92 1009.5
20260904063458 23 142 0.0 0.0 0.00 0.00 0.00 92 1009.5
20260904062951 23 142 0.0 0.0 0.00 0.00 0.00 91 1009.5
20260904062446 23 142 0.0 1.6 0.00 0.00 0.00 91 1009.5
20260904061944 23 167 0.0 0.0 0.00 0.00 0.00 91 1009.5
20260904061940 23 142 0.0 1.6 0.00 0.00 0.00 91 1009.5
20260904061432 23 167 0.0 1.6 0.00 0.00 0.00 91 1009.5
20260904060422 23 169 0.0 1.6 0.00 0.00 0.00 91 1009.6
20260904055916 23 89 0.0 1.6 0.00 0.00 0.00 90 1009.6
20260904055643 23 86 0.0 1.6 0.00 0.00 0.00 90 1009.5
20260904055137 23 86 0.0 0.0 0.00 0.00 0.00 90 1009.6
20260904054358 23 100 0.0 0.0 0.00 0.00 0.00 90 1009.5
20260904053851 23 98 0.0 1.6 0.00 0.00 0.00 89 1009.5
20260904053346 23 98 0.0 1.6 0.00 0.00 0.00 89 1009.5
20260904053113 24 136 0.0 0.0 0.00 0.00 0.00 89 1009.6
20260904052334 24 143 0.0 0.0 0.00 0.00 0.00 89 1009.5
20260904051828 24 144 0.0 1.6 0.00 0.00 0.00 88 1009.3
20260904051322 24 143 0.0 1.6 0.00 0.00 0.00 88 1009.2
20260904050816 24 152 0.0 1.6 0.00 0.00 0.00 88 1009.2
20260904050540 24 83 0.0 1.6 0.00 0.00 0.00 87 1009.3
20260904045803 24 84 0.0 1.6 0.00 0.00 0.00 87 1009.5
20260904045257 25 94 0.0 1.6 0.00 0.00 0.00 87 1009.3
20260904044750 25 114 0.0 1.6 0.00 0.00 0.00 87 1009.3
20260904044245 25 59 0.0 3.2 0.00 0.00 0.00 86 1009.2
20260904043739 25 85 0.0 3.2 0.00 0.00 0.00 86 1009.2
20260904043504 25 70 0.0 1.6 0.00 0.00 0.00 86 1009.2
20260904042959 25 63 0.0 1.6 0.00 0.00 0.00 85 1009.3
20260904042453 25 79 0.0 0.0 0.00 0.00 0.00 85 1009.3
20260904041715 25 81 0.0 0.0 0.00 0.00 0.00 85 1009.2
20260904041440 25 79 0.0 0.0 0.00 0.00 0.00 84 1009.2
20260904040703 25 41 0.0 0.0 0.00 0.00 0.00 84 1009.2
20260904040429 25 41 0.0 1.6 0.00 0.00 0.00 83 1009.2
20260904035651 25 41 0.0 1.6 0.00 0.00 0.00 83 1009.2
20260904035144 25 49 0.0 0.0 0.00 0.00 0.00 83 1009.1
20260904034639 25 49 0.0 0.0 0.00 0.00 0.00 83 1009.0
20260904034133 26 49 0.0 0.0 0.00 0.00 0.00 82 1009.0
20260904033858 26 49 0.0 4.8 0.00 0.00 0.00 82 1009.0
20260904033121 26 32 0.0 4.8 0.00 0.00 0.00 81 1009.1
20260904032615 26 308 0.0 3.2 0.00 0.00 0.00 81 1009.0
20260904032109 26 309 0.0 3.2 0.00 0.00 0.00 81 1008.9
20260904031603 26 215 0.0 3.2 0.00 0.00 0.00 80 1008.9
20260904031059 26 205 0.0 3.2 0.00 0.00 0.00 80 1008.9
20260904031053 26 172 0.0 3.2 0.00 0.00 0.00 80 1008.8